星链-36431(STARLINK-36431)

导读

STARLINK-36431是美国太空探索技术公司星链星座的卫星,于2026年1月12日发射升空,归属美国所有。星链项目旨在构建全球卫星互联网通信系统,这颗卫星加入后将进一步扩充星座规模,提升全球尤其是偏远地区的互联网覆盖能力,推动低轨卫星互联网服务的普及与发展。

Basic Information
目录编号:
67421
目录名称:
STARLINK-36431
国际标识:
2026-005T
轨道中心:
EARTH
卫星名称:
星链-36431
卫星全名:
星链-36431(STARLINK-36431)
卫星状态:
在轨 (已飞行235 天)
发射日期:
2026-01-12 UTC
国别 :
美国 (US)
星等 :
--
Orbit Information
数据来源 国际轨道数据
星历时间: 2026-09-03T22:41:06+0800
21小时前
查看轨道信息
半长轴: 6861.204km
偏心率: 0.0001384
轨道倾角: 43.003°
近地点辐角 277.038°
升交点赤经 313.499°
平近点角 83.031°
近地点: 482.117km
远地点: 484.017km
周期: 94.267分钟
每日圈数: 15.275743
Detailed Information
固有亮度:
5
最大亮度:
2.5
卫星平台:
Starlink V1.0
覆盖范围:
全球
运营商:
太空探索技术公司
运营商所在国:
美国
制造商(研发单位):
太空探索技术公司
制造商所在国:
美国
使用方式:
暂无
Satellite Introduction
Starlink 计划是 SpaceX 推出的全球卫星互联网项目,通过发射低轨道卫星,为全球尤其是偏远地区提供高速、低延迟的互联网服务。自 2019 年起,Starlink 已部署数千颗卫星,旨在缩小全球数字鸿沟,推动互联网普及。该项目还为军事、航空等行业提供通信支持,带来广泛经济效益。
2D Orbit Map
3D Orbit Map
Orbit Altitude Analysis Chart
Orbit Inclination Analysis Chart
Orbit Comprehensive Analysis Chart
View Comprehensive Chart
Conjunction Data List
Event ID Objects TCA Miss Dist (km) Collision Risk Probability Collision Risk Index (CRI) Action
CDM_260905-173105-864506-742121
2026-09-05T
17:31:22+0000
1.130 km
极远距离
1.1294E-5 中风险 0.56
CDM_260906-001905-245306-742121
2026-09-06T
00:19:33+0000
2.150 km
极远距离
1.07162E-6 低风险 0.36
CDM_260905-222306-434806-742121
2026-09-05T
22:23:12+0000
2.631 km
极远距离
7.21893E-7 极低风险 0.32
CDM_260905-213606-434806-742121
2026-09-05T
21:36:06+0000
2.783 km
极远距离
6.697403E-7 极低风险 0.32